WV5G-13 Weather Reports


Display with metric or nautical units.
time (UTC)temp
F
wind
direction
speed
MPH
gust
MPH
rain 1hr
in
rain 24hr
in
rain mn
in
humidity
%
barometer
mb
20260905193401 95 201 9.0 18.0 0.00 0.00 0.00 32 1013.5
20260905192856 95 156 4.0 12.0 0.00 0.00 0.00 34 1013.5
20260905192351 96 163 11.0 17.0 0.00 0.00 0.00 32 1013.9
20260905191851 96 170 6.0 15.0 0.00 0.00 0.00 32 1013.9
20260905191350 95 157 7.0 11.0 0.00 0.00 0.00 33 1013.9
20260905190849 95 154 10.0 13.0 0.00 0.00 0.00 33 1013.8
20260905190343 95 165 5.0 12.0 0.00 0.00 0.00 33 1013.8
20260905185842 94 231 4.0 14.0 0.00 0.00 0.00 34 1013.8
20260905185337 95 215 14.0 17.0 0.00 0.00 0.00 31 1013.9
20260905184836 94 226 9.0 15.0 0.00 0.00 0.00 35 1014.0
20260905184335 94 220 8.0 20.0 0.00 0.00 0.00 34 1014.1
20260905183834 94 200 6.0 15.0 0.00 0.00 0.00 35 1014.2
20260905183330 94 227 8.0 13.0 0.00 0.00 0.00 35 1014.2
20260905182829 94 187 5.0 12.0 0.00 0.00 0.00 36 1014.2
20260905182324 93 180 5.0 14.0 0.00 0.00 0.00 36 1014.3
20260905181820 93 184 4.0 12.0 0.00 0.00 0.00 37 1014.5
20260905181319 93 153 14.0 15.0 0.00 0.00 0.00 36 1014.2
20260905180818 93 182 3.0 12.0 0.00 0.00 0.00 37 1014.7
20260905180313 92 203 9.0 14.0 0.00 0.00 0.00 37 1014.6
20260905175808 92 216 5.0 15.0 0.00 0.00 0.00 39 1014.6
20260905175306 92 230 8.0 15.0 0.00 0.00 0.00 39 1014.7
20260905174758 92 160 9.0 13.0 0.00 0.00 0.00 39 1014.8
20260905174254 91 161 5.0 11.0 0.00 0.00 0.00 39 1014.7
20260905173749 91 224 15.0 17.0 0.00 0.00 0.00 39 1015.1
20260905173245 91 218 13.0 16.0 0.00 0.00 0.00 39 1014.8
20260905172744 91 196 6.0 14.0 0.00 0.00 0.00 41 1015.0
20260905172243 90 220 9.0 16.0 0.00 0.00 0.00 42 1015.0
20260905171740 89 180 8.0 15.0 0.00 0.00 0.00 43 1014.7
20260905171236 89 202 7.0 15.0 0.00 0.00 0.00 42 1015.0
20260905170732 89 177 5.0 15.0 0.00 0.00 0.00 44 1014.9
20260905170228 89 174 6.0 15.0 0.00 0.00 0.00 46 1015.0
20260905165727 88 170 9.0 12.0 0.00 0.00 0.00 45 1015.1
20260905165217 88 179 8.0 12.0 0.00 0.00 0.00 46 1015.1
20260905164716 87 210 2.0 12.0 0.00 0.00 0.00 47 1014.9
20260905164211 87 175 11.0 13.0 0.00 0.00 0.00 48 1014.7
20260905163707 86 209 10.0 13.0 0.00 0.00 0.00 48 1015.0
20260905163203 86 218 6.0 14.0 0.00 0.00 0.00 49 1015.4
20260905162659 85 203 4.0 15.0 0.00 0.00 0.00 51 1014.9
20260905162158 85 218 8.0 13.0 0.00 0.00 0.00 50 1015.2
20260905161653 84 219 10.0 14.0 0.00 0.00 0.00 50 1015.1
20260905161151 84 217 11.0 15.0 0.00 0.00 0.00 51 1015.2
20260905160645 83 205 7.0 15.0 0.00 0.00 0.00 52 1015.1
20260905160144 84 192 10.0 17.0 0.00 0.00 0.00 52 1015.0
20260905155639 83 219 11.0 16.0 0.00 0.00 0.00 53 1015.1
20260905155138 83 230 11.0 15.0 0.00 0.00 0.00 53 1015.1
20260905154638 82 204 5.0 17.0 0.00 0.00 0.00 54 1015.0
20260905154134 82 212 9.0 17.0 0.00 0.00 0.00 54 1015.1
20260905153629 82 200 11.0 16.0 0.00 0.00 0.00 54 1015.0
20260905153125 82 212 11.0 15.0 0.00 0.00 0.00 54 1015.2
20260905152619 81 217 12.0 17.0 0.00 0.00 0.00 56 1015.2
20260905152114 81 207 10.0 20.0 0.00 0.00 0.00 56 1015.0
20260905151609 81 225 13.0 14.0 0.00 0.00 0.00 57 1015.2
20260905151104 80 204 10.0 15.0 0.00 0.00 0.00 58 1015.1
20260905150600 80 203 12.0 17.0 0.00 0.00 0.00 58 1014.9
20260905150057 80 202 14.0 15.0 0.00 0.00 0.00 58 1015.1
20260905145551 79 209 5.0 13.0 0.00 0.00 0.00 59 1015.2
20260905145050 79 182 6.0 12.0 0.00 0.00 0.00 59 1015.1
20260905144545 79 224 3.0 11.0 0.00 0.00 0.00 59 1015.1
20260905144044 79 182 5.0 7.0 0.00 0.00 0.00 59 1015.1
20260905143538 78 189 7.0 12.0 0.00 0.00 0.00 60 1015.5
20260905143033 78 197 4.0 11.0 0.00 0.00 0.00 61 1015.2
20260905142532 78 187 7.0 12.0 0.00 0.00 0.00 60 1015.1
20260905142027 78 225 3.0 8.0 0.00 0.00 0.00 61 1015.1
20260905141521 77 212 7.0 10.0 0.00 0.00 0.00 62 1015.4
20260905141018 78 202 8.0 13.0 0.00 0.00 0.00 62 1015.0
20260905140513 77 179 4.0 7.0 0.00 0.00 0.00 62 1015.1
20260905140011 77 180 3.0 10.0 0.00 0.00 0.00 63 1015.0
20260905135507 76 216 6.0 9.0 0.00 0.00 0.00 63 1015.4
20260905135002 76 203 3.0 5.0 0.00 0.00 0.00 64 1015.1
20260905134502 76 154 6.0 9.0 0.00 0.00 0.00 64 1015.2
20260905134001 76 180 3.0 7.0 0.00 0.00 0.00 65 1015.4
20260905133456 75 144 4.0 8.0 0.00 0.00 0.00 66 1015.1
20260905132950 75 195 3.0 5.0 0.00 0.00 0.00 67 1015.1
20260905132445 74 193 4.0 5.0 0.00 0.00 0.00 68 1015.1
20260905131939 74 101 1.0 7.0 0.00 0.00 0.00 69 1015.0
20260905131436 73 204 3.0 5.0 0.00 0.00 0.00 70 1014.9
20260905130935 72 206 3.0 4.0 0.00 0.00 0.00 72 1014.9
20260905130429 72 282 0.0 3.0 0.00 0.00 0.00 73 1014.9
20260905125924 71 172 3.0 4.0 0.00 0.00 0.00 74 1014.7
20260905125419 71 172 3.0 4.0 0.00 0.00 0.00 74 1014.9
20260905124914 71 136 3.0 4.0 0.00 0.00 0.00 75 1014.6
20260905124411 70 134 3.0 5.0 0.00 0.00 0.00 76 1014.7
20260905123911 69 145 2.0 4.0 0.00 0.00 0.00 77 1014.9
20260905123408 70 144 3.0 7.0 0.00 0.00 0.00 77 1014.5
20260905122903 69 120 5.0 8.0 0.00 0.00 0.00 78 1014.6
20260905122401 69 105 4.0 5.0 0.00 0.00 0.00 79 1014.6
20260905121857 69 57 1.0 4.0 0.00 0.00 0.00 79 1014.5
20260905121353 69 102 4.0 4.0 0.00 0.00 0.00 78 1014.5
20260905120852 70 109 3.0 5.0 0.00 0.00 0.00 78 1014.3
20260905120346 70 115 5.0 6.0 0.00 0.00 0.00 77 1014.8
20260905115842 70 106 3.0 4.0 0.00 0.00 0.00 76 1014.3
20260905115341 71 113 3.0 5.0 0.00 0.00 0.00 75 1014.3
20260905114841 71 124 3.0 4.0 0.00 0.00 0.00 75 1014.2
20260905114340 71 111 2.0 6.0 0.00 0.00 0.00 74 1014.5
20260905113834 71 145 3.0 3.0 0.00 0.00 0.00 74 1014.5
20260905113330 71 111 3.0 4.0 0.00 0.00 0.00 74 1014.5
20260905112825 71 101 3.0 6.0 0.00 0.00 0.00 74 1014.7
20260905112320 71 115 4.0 6.0 0.00 0.00 0.00 74 1014.3
20260905111815 72 103 2.0 5.0 0.00 0.00 0.00 73 1014.1
20260905111309 72 128 4.0 6.0 0.00 0.00 0.00 72 1014.3
20260905110808 72 115 3.0 5.0 0.00 0.00 0.00 72 1014.2
20260905110302 72 109 5.0 6.0 0.00 0.00 0.00 71 1014.3
20260905105758 73 83 2.0 6.0 0.00 0.00 0.00 70 1014.3
20260905105257 73 74 4.0 5.0 0.00 0.00 0.00 70 1014.3
20260905104751 73 66 5.0 5.0 0.00 0.00 0.00 70 1014.1
20260905104248 73 34 3.0 4.0 0.00 0.00 0.00 69 1014.1
20260905103747 74 25 3.0 3.0 0.00 0.00 0.00 65 1014.0
20260905103243 75 243 0.0 3.0 0.00 0.00 0.00 64 1014.0
20260905102739 75 277 2.0 3.0 0.00 0.00 0.00 63 1014.0
20260905102235 75 231 1.0 4.0 0.00 0.00 0.00 63 1013.8
20260905101734 75 239 3.0 6.0 0.00 0.00 0.00 63 1014.0
20260905101233 75 219 4.0 6.0 0.00 0.00 0.00 62 1014.1
20260905100729 76 234 1.0 6.0 0.00 0.00 0.00 62 1014.0
20260905100224 76 237 3.0 7.0 0.00 0.00 0.00 62 1014.1
20260905095724 76 235 4.0 6.0 0.00 0.00 0.00 62 1014.0
20260905095224 76 225 5.0 6.0 0.00 0.00 0.00 61 1013.9
20260905094718 76 242 4.0 6.0 0.00 0.00 0.00 61 1014.0
20260905094213 76 293 2.0 4.0 0.00 0.00 0.00 61 1014.1
20260905093707 76 245 5.0 5.0 0.00 0.00 0.00 61 1014.2
20260905093203 76 231 4.0 6.0 0.00 0.00 0.00 61 1014.3
20260905092658 76 226 3.0 5.0 0.00 0.00 0.00 61 1014.2
20260905092154 76 238 3.0 5.0 0.00 0.00 0.00 61 1014.0
20260905091648 76 227 6.0 7.0 0.00 0.00 0.00 60 1014.2
20260905091147 76 220 4.0 7.0 0.00 0.00 0.00 60 1014.2
20260905090642 76 183 3.0 4.0 0.00 0.00 0.00 60 1014.0
20260905090138 76 207 5.0 5.0 0.00 0.00 0.00 60 1014.0
20260905085636 76 234 4.0 7.0 0.00 0.00 0.00 60 1014.3
20260905085126 77 207 7.0 11.0 0.00 0.00 0.00 59 1014.3
20260905084626 76 208 3.0 7.0 0.00 0.00 0.00 60 1014.1
20260905084121 77 212 7.0 8.0 0.00 0.00 0.00 60 1014.0
20260905083615 77 218 7.0 8.0 0.00 0.00 0.00 59 1014.2
20260905083112 77 211 5.0 6.0 0.00 0.00 0.00 59 1014.2
20260905082607 77 236 4.0 6.0 0.00 0.00 0.00 59 1014.2
20260905082103 77 227 3.0 8.0 0.00 0.00 0.00 58 1014.0
20260905081602 77 214 3.0 7.0 0.00 0.00 0.00 58 1014.3
20260905081056 77 253 4.0 8.0 0.00 0.00 0.00 58 1014.0
20260905080551 77 229 5.0 8.0 0.00 0.00 0.00 58 1014.3
20260905080046 77 192 4.0 6.0 0.00 0.00 0.00 58 1014.1
20260905075544 78 219 4.0 9.0 0.00 0.00 0.00 57 1014.1
20260905075038 78 218 7.0 11.0 0.00 0.00 0.00 57 1014.2
20260905074532 77 224 5.0 9.0 0.00 0.00 0.00 58 1014.5
20260905074028 77 217 5.0 6.0 0.00 0.00 0.00 58 1014.2
20260905073524 77 197 3.0 7.0 0.00 0.00 0.00 58 1014.3
20260905073020 78 211 3.0 11.0 0.00 0.00 0.00 58 1014.5
20260905072519 78 206 6.0 8.0 0.00 0.00 0.00 58 1014.3
20260905072014 78 234 7.0 10.0 0.00 0.00 0.00 58 1014.5
20260905071511 78 220 7.0 10.0 0.00 0.00 0.00 58 1014.2
20260905071011 78 229 9.0 12.0 0.00 0.00 0.00 58 1014.6
20260905070507 78 230 8.0 12.0 0.00 0.00 0.00 58 1014.3
20260905070002 78 232 6.0 11.0 0.00 0.00 0.00 58 1014.5
20260905065500 78 216 9.0 12.0 0.00 0.00 0.00 57 1014.6
20260905064955 78 216 7.0 10.0 0.00 0.00 0.00 57 1014.6
20260905064450 78 225 7.0 12.0 0.00 0.00 0.00 57 1014.5
20260905063945 78 225 10.0 12.0 0.00 0.00 0.00 56 1014.5
20260905063439 78 212 6.0 11.0 0.00 0.00 0.00 57 1014.1
20260905062936 78 225 7.0 10.0 0.00 0.00 0.00 57 1014.5
20260905062435 78 229 6.0 8.0 0.00 0.00 0.00 56 1014.7
20260905061931 78 227 6.0 11.0 0.00 0.00 0.00 56 1014.6
20260905061425 78 229 7.0 8.0 0.00 0.00 0.00 56 1014.6
20260905060924 78 224 8.0 11.0 0.00 0.00 0.00 56 1014.3
20260905060421 78 217 5.0 9.0 0.00 0.00 0.00 55 1014.0
20260905055920 78 217 6.0 7.0 0.00 0.00 0.00 56 1014.1
20260905055415 78 207 5.0 9.0 0.00 0.00 0.00 56 1014.2
20260905054914 78 210 4.0 6.0 0.00 0.00 0.00 55 1014.2
20260905054411 78 242 4.0 6.0 0.00 0.00 0.00 55 1014.5
20260905053910 79 220 5.0 6.0 0.00 0.00 0.00 55 1014.5
20260905053405 79 217 3.0 5.0 0.00 0.00 0.00 54 1014.1
20260905052901 79 178 5.0 6.0 0.00 0.00 0.00 53 1014.5
20260905052400 80 220 6.0 7.0 0.00 0.00 0.00 53 1014.5
20260905051900 80 230 5.0 8.0 0.00 0.00 0.00 53 1014.3
20260905051356 80 236 5.0 7.0 0.00 0.00 0.00 52 1014.2
20260905050853 81 240 4.0 9.0 0.00 0.00 0.00 51 1014.6
20260905050349 81 214 5.0 11.0 0.00 0.00 0.00 51 1014.3
20260905045849 81 220 7.0 11.0 0.00 0.00 0.00 50 1014.3
20260905045344 82 208 2.0 11.0 0.00 0.00 0.00 49 1014.5
20260905044839 82 189 5.0 8.0 0.00 0.00 0.00 49 1014.6
20260905044334 82 186 7.0 10.0 0.00 0.00 0.00 49 1014.2
20260905043833 82 204 5.0 12.0 0.00 0.00 0.00 48 1014.5
20260905043328 82 207 5.0 10.0 0.00 0.00 0.00 48 1014.5
20260905042823 83 195 6.0 10.0 0.00 0.00 0.00 47 1014.3
20260905042323 83 196 6.0 13.0 0.00 0.00 0.00 47 1014.1
20260905041818 83 213 6.0 13.0 0.00 0.00 0.00 46 1014.2
20260905041314 84 217 5.0 12.0 0.00 0.00 0.00 45 1014.2
20260905040809 84 180 7.0 14.0 0.00 0.00 0.00 45 1014.2
20260905040307 84 207 10.0 12.0 0.00 0.00 0.00 44 1014.2
20260905035802 85 190 9.0 13.0 0.00 0.00 0.00 44 1014.1
20260905035258 85 171 7.0 11.0 0.00 0.00 0.00 43 1013.8
20260905034755 85 192 6.0 13.0 0.00 0.00 0.00 42 1013.9
20260905034255 85 210 9.0 10.0 0.00 0.00 0.00 41 1014.0
20260905033753 85 185 9.0 13.0 0.00 0.00 0.00 41 1014.0
20260905033249 85 155 5.0 12.0 0.00 0.00 0.00 41 1013.9
20260905032748 85 159 7.0 9.0 0.00 0.00 0.00 40 1013.7
20260905032244 85 174 5.0 13.0 0.00 0.00 0.00 40 1013.6
20260905031738 86 158 10.0 12.0 0.00 0.00 0.00 39 1013.5
20260905031235 86 154 7.0 15.0 0.00 0.00 0.00 37 1013.3
20260905030730 86 144 5.0 13.0 0.00 0.00 0.00 37 1013.3
20260905030224 86 199 6.0 11.0 0.00 0.00 0.00 37 1013.2
20260905025719 86 167 3.0 8.0 0.00 0.00 0.00 38 1013.1
20260905025215 86 140 6.0 9.0 0.00 0.00 0.00 37 1013.1
20260905024710 87 141 5.0 7.0 0.00 0.00 0.00 36 1012.9
20260905024206 87 139 7.0 8.0 0.00 0.00 0.00 36 1012.7
20260905023700 86 159 2.0 7.0 0.00 0.00 0.00 36 1012.6
20260905023155 86 141 5.0 7.0 0.00 0.00 0.00 37 1012.7
20260905022654 86 176 6.0 7.0 0.00 0.00 0.00 37 1012.7
20260905022150 86 192 3.0 5.0 0.00 0.00 0.00 38 1012.6
20260905021649 86 220 4.0 5.0 0.00 0.00 0.00 38 1012.3
20260905021145 86 198 2.0 4.0 0.00 0.00 0.00 37 1012.0
20260905020640 86 140 2.0 6.0 0.00 0.00 0.00 37 1012.1
20260905020135 86 127 6.0 7.0 0.00 0.00 0.00 37 1012.2
20260905015633 87 134 6.0 8.0 0.00 0.00 0.00 37 1012.1
20260905015133 87 141 5.0 9.0 0.00 0.00 0.00 37 1012.0
20260905014627 87 128 7.0 9.0 0.00 0.00 0.00 37 1012.2
20260905014123 87 136 5.0 8.0 0.00 0.00 0.00 38 1011.8
20260905013619 87 134 7.0 10.0 0.00 0.00 0.00 38 1012.1
20260905013115 87 135 6.0 9.0 0.00 0.00 0.00 38 1012.0
20260905012615 87 130 7.0 9.0 0.00 0.00 0.00 38 1011.9
20260905012112 87 139 7.0 9.0 0.00 0.00 0.00 38 1011.9
20260905011607 87 134 6.0 8.0 0.00 0.00 0.00 38 1011.7
20260905011103 88 128 6.0 8.0 0.00 0.00 0.00 37 1011.8
20260905010602 89 129 7.0 9.0 0.00 0.00 0.00 37 1011.8
20260905010059 89 145 5.0 6.0 0.00 0.00 0.00 36 1011.8
20260905005554 89 142 4.0 6.0 0.00 0.00 0.00 35 1011.9
20260905005050 90 136 6.0 7.0 0.00 0.00 0.00 35 1011.7
20260905004544 90 133 7.0 8.0 0.00 0.00 0.00 34 1011.6
20260905004039 91 129 6.0 7.0 0.00 0.00 0.00 35 1011.6
20260905003535 91 120 6.0 8.0 0.00 0.00 0.00 34 1011.9
20260905003030 91 126 6.0 8.0 0.00 0.00 0.00 34 1011.6
20260905002526 92 132 7.0 7.0 0.00 0.00 0.00 33 1011.5
20260905002020 92 142 7.0 7.0 0.00 0.00 0.00 33 1011.7
20260905001515 92 122 6.0 10.0 0.00 0.00 0.00 32 1011.6
20260905001008 92 126 8.0 11.0 0.00 0.00 0.00 32 1011.6
20260905000504 92 116 7.0 11.0 0.00 0.00 0.00 32 1011.5
20260905000000 93 131 7.0 10.0 0.00 0.00 0.00 31 1011.6
20260904235455 93 138 7.0 11.0 0.00 0.00 0.00 30 1011.3
20260904234950 95 122 11.0 15.0 0.00 0.00 0.00 28 1011.5
20260904234449 95 122 11.0 15.0 0.00 0.00 0.00 28 1011.2
20260904233946 95 134 12.0 13.0 0.00 0.00 0.00 27 1011.0
20260904233441 96 133 14.0 15.0 0.00 0.00 0.00 25 1011.0
20260904232937 97 147 7.0 10.0 0.00 0.00 0.00 25 1011.0
20260904232433 96 177 6.0 8.0 0.00 0.00 0.00 24 1010.8
20260904231929 97 170 3.0 6.0 0.00 0.00 0.00 24 1010.8
20260904231424 97 149 8.0 10.0 0.00 0.00 0.00 24 1010.9
20260904230919 97 138 7.0 11.0 0.00 0.00 0.00 24 1010.9
20260904230418 97 160 4.0 8.0 0.00 0.00 0.00 24 1010.9
20260904225913 97 147 7.0 11.0 0.00 0.00 0.00 23 1011.0
20260904225411 98 204 5.0 12.0 0.00 0.00 0.00 24 1011.1
20260904224911 98 163 6.0 9.0 0.00 0.00 0.00 23 1011.1
20260904224407 98 148 6.0 10.0 0.00 0.00 0.00 23 1010.9
20260904223901 98 147 7.0 11.0 0.00 0.00 0.00 23 1011.2
20260904223400 97 138 7.0 14.0 0.00 0.00 0.00 24 1011.2
20260904222856 97 160 4.0 13.0 0.00 0.00 0.00 24 1011.0
20260904222351 97 168 5.0 8.0 0.00 0.00 0.00 24 1011.2
20260904221851 96 160 6.0 10.0 0.00 0.00 0.00 24 1011.3
20260904221346 95 158 11.0 13.0 0.00 0.00 0.00 24 1011.5
20260904220841 95 173 6.0 13.0 0.00 0.00 0.00 25 1011.6
20260904220340 95 170 5.0 9.0 0.00 0.00 0.00 25 1011.3
20260904215836 95 162 6.0 11.0 0.00 0.00 0.00 25 1011.3
20260904215331 95 186 3.0 9.0 0.00 0.00 0.00 25 1011.1
20260904214827 96 154 12.0 13.0 0.00 0.00 0.00 25 1011.5
20260904214322 96 220 5.0 12.0 0.00 0.00 0.00 25 1011.5
20260904213820 97 189 6.0 11.0 0.00 0.00 0.00 26 1011.7
20260904213316 99 180 11.0 20.0 0.00 0.00 0.00 25 1011.6
20260904212812 99 206 3.0 12.0 0.00 0.00 0.00 24 1011.8
20260904212312 99 189 11.0 15.0 0.00 0.00 0.00 24 1011.7
20260904211807 98 213 9.0 16.0 0.00 0.00 0.00 23 1011.6
20260904211301 98 178 9.0 12.0 0.00 0.00 0.00 24 1011.3
20260904210751 98 220 6.0 16.0 0.00 0.00 0.00 25 1011.5
20260904210250 98 171 9.0 15.0 0.00 0.00 0.00 26 1011.6
20260904205747 97 214 6.0 16.0 0.00 0.00 0.00 26 1011.6
20260904205243 98 211 10.0 16.0 0.00 0.00 0.00 25 1011.9
20260904204739 98 219 11.0 16.0 0.00 0.00 0.00 25 1011.9
20260904204235 97 213 3.0 5.0 0.00 0.00 0.00 26 1011.7
20260904203731 96 256 4.0 7.0 0.00 0.00 0.00 26 1011.8
20260904203227 97 219 8.0 16.0 0.00 0.00 0.00 26 1012.0
20260904202723 98 154 3.0 4.0 0.00 0.00 0.00 25 1011.9
20260904202219 99 213 6.0 11.0 0.00 0.00 0.00 25 1012.1
20260904201714 100 212 6.0 12.0 0.00 0.00 0.00 25 1012.1
20260904201214 99 233 6.0 8.0 0.00 0.00 0.00 24 1012.2
20260904200708 99 218 9.0 12.0 0.00 0.00 0.00 25 1012.3
20260904200203 99 230 3.0 13.0 0.00 0.00 0.00 25 1012.2
20260904195702 99 228 0.0 3.0 0.00 0.00 0.00 24 1012.3
20260904195156 98 274 4.0 6.0 0.00 0.00 0.00 27 1012.5
20260904194650 98 215 2.0 5.0 0.00 0.00 0.00 26 1012.7
20260904194150 97 241 9.0 11.0 0.00 0.00 0.00 26 1012.6